Location: Holcomb Observatory and Planetarium
(39.8415°N, 86.1714°W)
Time: 08:52:13
(UTC-05:00)

HST - Visible Passes

Search period start: 24 November 2014 00:00
Search period end: 04 December 2014 00:00
Orbit: 545 x 550 km, 28.5° (Epoch: 23 November)

Date Brightness Start Highest point End Pass type
(mag) Time Alt. Az. Time Alt. Az. Time Alt. Az.
24 Nov 3.1 05:59:35 11° SSW 06:01:53 16° S 06:04:31 10° SE visible
25 Nov 3.0 05:52:39 14° SSW 05:54:15 17° S 05:56:58 10° SE visible
26 Nov 2.9 05:45:40 16° SSW 05:46:36 17° S 05:49:21 10° SE visible
27 Nov 2.9 05:38:39 17° S 05:38:56 17° S 05:41:39 10° SE visible
28 Nov 3.0 05:31:36 16° S 05:31:36 16° S 05:33:52 10° SSE visible
29 Nov 3.2 05:24:32 14° S 05:24:32 14° S 05:25:59 10° SSE visible
30 Nov 3.5 05:17:29 11° SSE 05:17:29 11° SSE 05:17:58 10° SSE visible
